| time (UTC) | temp F | wind direction | speed MPH | gust MPH | rain 1hr in | rain 24hr in | rain mn in | humidity % | barometer mb |
| 20260506051035 | 66 | 268 | 0.0 | 0.0 | 0.00 | 0.00 | 0.00 | 58 | 1018.9 |
| 20260506050533 | 66 | 268 | 0.0 | 0.0 | 0.00 | 0.00 | 0.00 | 58 | 1018.6 |
| 20260506045023 | 66 | 312 | 0.0 | 0.0 | 0.00 | 0.00 | 0.00 | 56 | 1019.0 |
| 20260506044521 | 67 | 218 | 0.0 | 0.0 | 0.00 | 0.00 | 0.00 | 55 | 1019.4 |
| 20260506044018 | 67 | 239 | 0.0 | 0.0 | 0.00 | 0.00 | 0.00 | 55 | 1019.4 |
| 20260506043515 | 67 | 266 | 0.0 | 0.0 | 0.00 | 0.00 | 0.00 | 55 | 1019.4 |
| 20260506043013 | 67 | 265 | 0.0 | 0.0 | 0.00 | 0.00 | 0.00 | 55 | 1019.6 |
| 20260506042512 | 66 | 269 | 0.0 | 0.0 | 0.00 | 0.00 | 0.00 | 55 | 1019.0 |
| 20260506042010 | 66 | 270 | 0.0 | 0.0 | 0.00 | 0.00 | 0.00 | 55 | 1019.1 |
| 20260506041508 | 67 | 272 | 0.0 | 0.0 | 0.00 | 0.00 | 0.00 | 55 | 1018.9 |
| 20260506041004 | 67 | 239 | 0.0 | 0.0 | 0.00 | 0.00 | 0.00 | 55 | 1018.9 |
| 20260506040502 | 67 | 241 | 0.0 | 2.0 | 0.00 | 0.00 | 0.00 | 55 | 1018.9 |
| 20260506035958 | 67 | 269 | 0.0 | 0.0 | 0.00 | 0.00 | 0.00 | 55 | 1018.9 |
| 20260506035455 | 67 | 245 | 0.0 | 0.0 | 0.00 | 0.00 | 0.00 | 54 | 1018.8 |
| 20260506034951 | 68 | 269 | 0.0 | 0.0 | 0.00 | 0.00 | 0.00 | 53 | 1019.1 |
| 20260506034449 | 68 | 233 | 0.0 | 0.0 | 0.00 | 0.00 | 0.00 | 53 | 1019.1 |
| 20260506033946 | 68 | 269 | 0.0 | 0.0 | 0.00 | 0.00 | 0.00 | 53 | 1019.3 |
| 20260506033444 | 68 | 265 | 0.0 | 0.0 | 0.00 | 0.00 | 0.00 | 53 | 1019.3 |
| 20260506032940 | 68 | 139 | 0.0 | 0.0 | 0.00 | 0.00 | 0.00 | 52 | 1019.4 |
| 20260506032437 | 68 | 138 | 1.0 | 2.0 | 0.00 | 0.00 | 0.00 | 52 | 1019.3 |
| 20260506031934 | 69 | 138 | 0.0 | 0.0 | 0.00 | 0.00 | 0.00 | 51 | 1019.4 |
| 20260506031431 | 69 | 272 | 0.0 | 0.0 | 0.00 | 0.00 | 0.00 | 51 | 1019.3 |
| 20260506030929 | 69 | 262 | 0.0 | 0.0 | 0.00 | 0.00 | 0.00 | 51 | 1019.3 |
| 20260506030427 | 69 | 271 | 0.0 | 0.0 | 0.00 | 0.00 | 0.00 | 51 | 1019.1 |
| 20260506025923 | 69 | 253 | 0.0 | 0.0 | 0.00 | 0.00 | 0.00 | 50 | 1019.5 |
| 20260506025420 | 69 | 272 | 0.0 | 0.0 | 0.00 | 0.00 | 0.00 | 50 | 1019.3 |
| 20260506024917 | 69 | 271 | 0.0 | 0.0 | 0.00 | 0.00 | 0.00 | 50 | 1019.4 |
| 20260506024414 | 69 | 257 | 0.0 | 0.0 | 0.00 | 0.00 | 0.00 | 50 | 1019.3 |
| 20260506023909 | 69 | 274 | 0.0 | 2.0 | 0.00 | 0.00 | 0.00 | 50 | 1019.1 |
| 20260506023407 | 70 | 226 | 1.0 | 2.0 | 0.00 | 0.00 | 0.00 | 49 | 1019.3 |
| 20260506022903 | 70 | 274 | 0.0 | 0.0 | 0.00 | 0.00 | 0.00 | 49 | 1019.1 |
| 20260506022401 | 70 | 175 | 1.0 | 2.0 | 0.00 | 0.00 | 0.00 | 48 | 1019.3 |
| 20260506021859 | 70 | 260 | 0.0 | 0.0 | 0.00 | 0.00 | 0.00 | 48 | 1019.3 |
| 20260506021355 | 71 | 262 | 0.0 | 0.0 | 0.00 | 0.00 | 0.00 | 47 | 1018.9 |
| 20260506020852 | 71 | 264 | 0.0 | 0.0 | 0.00 | 0.00 | 0.00 | 47 | 1019.1 |
| 20260506020351 | 71 | 242 | 0.0 | 0.0 | 0.00 | 0.00 | 0.00 | 46 | 1019.1 |
| 20260506015847 | 71 | 260 | 0.0 | 0.0 | 0.00 | 0.00 | 0.00 | 46 | 1018.9 |
| 20260506015345 | 71 | 260 | 0.0 | 0.0 | 0.00 | 0.00 | 0.00 | 46 | 1018.8 |
| 20260506014842 | 71 | 244 | 0.0 | 0.0 | 0.00 | 0.00 | 0.00 | 46 | 1018.7 |
| 20260506014338 | 71 | 183 | 2.0 | 3.0 | 0.00 | 0.00 | 0.00 | 45 | 1018.8 |
| 20260506013835 | 71 | 249 | 2.0 | 3.0 | 0.00 | 0.00 | 0.00 | 45 | 1018.6 |
| 20260506013333 | 72 | 260 | 0.0 | 0.0 | 0.00 | 0.00 | 0.00 | 45 | 1018.8 |
| 20260506012829 | 72 | 268 | 0.0 | 0.0 | 0.00 | 0.00 | 0.00 | 44 | 1019.0 |
| 20260506012326 | 72 | 269 | 0.0 | 0.0 | 0.00 | 0.00 | 0.00 | 44 | 1019.0 |
| 20260506011823 | 72 | 227 | 2.0 | 2.0 | 0.00 | 0.00 | 0.00 | 43 | 1018.8 |
| 20260506011320 | 73 | 264 | 0.0 | 0.0 | 0.00 | 0.00 | 0.00 | 43 | 1018.9 |
| 20260506010817 | 73 | 234 | 0.0 | 0.0 | 0.00 | 0.00 | 0.00 | 43 | 1018.5 |
| 20260506010315 | 73 | 227 | 1.0 | 2.0 | 0.00 | 0.00 | 0.00 | 43 | 1018.7 |
| 20260506005812 | 73 | 260 | 0.0 | 0.0 | 0.00 | 0.00 | 0.00 | 42 | 1018.9 |
| 20260506005309 | 73 | 240 | 0.0 | 0.0 | 0.00 | 0.00 | 0.00 | 42 | 1019.0 |
| 20260506004805 | 73 | 258 | 0.0 | 0.0 | 0.00 | 0.00 | 0.00 | 42 | 1019.0 |
| 20260506004303 | 73 | 244 | 0.0 | 0.0 | 0.00 | 0.00 | 0.00 | 41 | 1019.0 |
| 20260506003759 | 74 | 256 | 0.0 | 0.0 | 0.00 | 0.00 | 0.00 | 41 | 1019.0 |
| 20260506003255 | 74 | 228 | 2.0 | 2.0 | 0.00 | 0.00 | 0.00 | 41 | 1019.0 |
| 20260506002751 | 74 | 256 | 1.0 | 2.0 | 0.00 | 0.00 | 0.00 | 41 | 1019.0 |
| 20260506002247 | 74 | 188 | 1.0 | 3.0 | 0.00 | 0.00 | 0.00 | 41 | 1018.8 |
| 20260506001743 | 74 | 256 | 2.0 | 2.0 | 0.00 | 0.00 | 0.00 | 41 | 1019.1 |
| 20260506001241 | 74 | 259 | 0.0 | 0.0 | 0.00 | 0.00 | 0.00 | 40 | 1018.7 |
| 20260506000738 | 75 | 263 | 0.0 | 0.0 | 0.00 | 0.00 | 0.00 | 41 | 1018.9 |
| 20260506000235 | 75 | 253 | 2.0 | 2.0 | 0.00 | 0.00 | 0.00 | 41 | 1018.9 |
| 20260505235732 | 75 | 256 | 0.0 | 2.0 | 0.00 | 0.00 | 0.00 | 40 | 1018.8 |
| 20260505235230 | 75 | 240 | 1.0 | 2.0 | 0.00 | 0.00 | 0.00 | 39 | 1018.8 |
| 20260505234726 | 76 | 239 | 0.0 | 0.0 | 0.00 | 0.00 | 0.00 | 39 | 1018.7 |
| 20260505234224 | 76 | 252 | 3.0 | 5.0 | 0.00 | 0.00 | 0.00 | 38 | 1018.5 |
| 20260505233720 | 76 | 272 | 2.0 | 2.0 | 0.00 | 0.00 | 0.00 | 39 | 1018.7 |
| 20260505233218 | 77 | 200 | 2.0 | 3.0 | 0.00 | 0.00 | 0.00 | 39 | 1018.6 |
| 20260505232715 | 77 | 222 | 3.0 | 3.0 | 0.00 | 0.00 | 0.00 | 38 | 1018.6 |
| 20260505232213 | 77 | 274 | 2.0 | 2.0 | 0.00 | 0.00 | 0.00 | 38 | 1018.7 |
| 20260505231709 | 77 | 270 | 2.0 | 2.0 | 0.00 | 0.00 | 0.00 | 38 | 1018.6 |
| 20260505231208 | 77 | 246 | 3.0 | 5.0 | 0.00 | 0.00 | 0.00 | 37 | 1018.8 |
| 20260505230706 | 77 | 247 | 3.0 | 3.0 | 0.00 | 0.00 | 0.00 | 37 | 1018.5 |
| 20260505230202 | 77 | 243 | 4.0 | 5.0 | 0.00 | 0.00 | 0.00 | 37 | 1018.5 |
| 20260505225659 | 77 | 247 | 3.0 | 3.0 | 0.00 | 0.00 | 0.00 | 36 | 1018.5 |
| 20260505225155 | 78 | 246 | 2.0 | 2.0 | 0.00 | 0.00 | 0.00 | 37 | 1018.5 |
| 20260505224651 | 78 | 248 | 2.0 | 2.0 | 0.00 | 0.00 | 0.00 | 36 | 1018.5 |
| 20260505224149 | 78 | 245 | 4.0 | 5.0 | 0.00 | 0.00 | 0.00 | 35 | 1018.4 |
| 20260505223646 | 78 | 204 | 3.0 | 5.0 | 0.00 | 0.00 | 0.00 | 34 | 1018.6 |
| 20260505223142 | 78 | 164 | 0.0 | 2.0 | 0.00 | 0.00 | 0.00 | 33 | 1018.6 |
| 20260505222632 | 78 | 172 | 2.0 | 3.0 | 0.00 | 0.00 | 0.00 | 33 | 1018.3 |
| 20260505222129 | 78 | 233 | 5.0 | 7.0 | 0.00 | 0.00 | 0.00 | 33 | 1018.2 |
| 20260505221626 | 79 | 248 | 4.0 | 7.0 | 0.00 | 0.00 | 0.00 | 32 | 1018.2 |
| 20260505221123 | 79 | 226 | 3.0 | 3.0 | 0.00 | 0.00 | 0.00 | 33 | 1018.4 |
| 20260505220620 | 79 | 266 | 1.0 | 2.0 | 0.00 | 0.00 | 0.00 | 32 | 1018.1 |
| 20260505220118 | 79 | 116 | 2.0 | 3.0 | 0.00 | 0.00 | 0.00 | 34 | 1018.3 |
| 20260505215615 | 79 | 278 | 0.0 | 0.0 | 0.00 | 0.00 | 0.00 | 33 | 1018.6 |
| 20260505215113 | 79 | 141 | 6.0 | 7.0 | 0.00 | 0.00 | 0.00 | 33 | 1018.4 |
| 20260505214611 | 80 | 268 | 0.0 | 0.0 | 0.00 | 0.00 | 0.00 | 31 | 1018.6 |
| 20260505214108 | 80 | 78 | 2.0 | 3.0 | 0.00 | 0.00 | 0.00 | 31 | 1018.3 |
| 20260505213605 | 80 | 167 | 0.0 | 0.0 | 0.00 | 0.00 | 0.00 | 32 | 1018.5 |
| 20260505213102 | 79 | 240 | 2.0 | 3.0 | 0.00 | 0.00 | 0.00 | 32 | 1018.9 |
| 20260505212558 | 79 | 224 | 3.0 | 3.0 | 0.00 | 0.00 | 0.00 | 32 | 1018.6 |
| 20260505212056 | 80 | 296 | 1.0 | 2.0 | 0.00 | 0.00 | 0.00 | 32 | 1018.5 |
| 20260505211552 | 80 | 272 | 0.0 | 0.0 | 0.00 | 0.00 | 0.00 | 33 | 1018.5 |
| 20260505211049 | 80 | 194 | 3.0 | 3.0 | 0.00 | 0.00 | 0.00 | 31 | 1018.6 |
| 20260505210546 | 80 | 58 | 3.0 | 5.0 | 0.00 | 0.00 | 0.00 | 32 | 1018.5 |
| 20260505210043 | 79 | 274 | 0.0 | 2.0 | 0.00 | 0.00 | 0.00 | 34 | 1018.6 |
| 20260505205541 | 80 | 288 | 3.0 | 5.0 | 0.00 | 0.00 | 0.00 | 33 | 1018.6 |
| 20260505205038 | 80 | 210 | 3.0 | 5.0 | 0.00 | 0.00 | 0.00 | 34 | 1018.7 |
| 20260505204535 | 79 | 198 | 2.0 | 3.0 | 0.00 | 0.00 | 0.00 | 34 | 1018.8 |
| 20260505204033 | 79 | 209 | 2.0 | 2.0 | 0.00 | 0.00 | 0.00 | 34 | 1018.8 |
| 20260505203529 | 79 | 199 | 3.0 | 5.0 | 0.00 | 0.00 | 0.00 | 36 | 1019.1 |
| 20260505203026 | 79 | 179 | 4.0 | 7.0 | 0.00 | 0.00 | 0.00 | 34 | 1019.0 |
| 20260505202522 | 79 | 245 | 3.0 | 5.0 | 0.00 | 0.00 | 0.00 | 34 | 1019.3 |
| 20260505202018 | 79 | 238 | 3.0 | 5.0 | 0.00 | 0.00 | 0.00 | 34 | 1018.9 |
| 20260505201516 | 79 | 178 | 3.0 | 3.0 | 0.00 | 0.00 | 0.00 | 33 | 1019.0 |
| 20260505201013 | 79 | 272 | 1.0 | 3.0 | 0.00 | 0.00 | 0.00 | 33 | 1019.1 |
| 20260505200511 | 79 | 214 | 7.0 | 9.0 | 0.00 | 0.00 | 0.00 | 34 | 1019.3 |
| 20260505200008 | 79 | 172 | 0.0 | 2.0 | 0.00 | 0.00 | 0.00 | 36 | 1019.4 |
| 20260505195504 | 79 | 141 | 3.0 | 5.0 | 0.00 | 0.00 | 0.00 | 35 | 1019.6 |
| 20260505195001 | 79 | 271 | 4.0 | 7.0 | 0.00 | 0.00 | 0.00 | 35 | 1019.5 |
| 20260505194459 | 79 | 135 | 5.0 | 7.0 | 0.00 | 0.00 | 0.00 | 32 | 1019.8 |
| 20260505193958 | 79 | 136 | 3.0 | 3.0 | 0.00 | 0.00 | 0.00 | 35 | 1019.6 |
| 20260505193456 | 79 | 258 | 1.0 | 2.0 | 0.00 | 0.00 | 0.00 | 35 | 1019.7 |
| 20260505192947 | 78 | 127 | 6.0 | 7.0 | 0.00 | 0.00 | 0.00 | 33 | 1019.7 |
| 20260505192446 | 78 | 358 | 2.0 | 5.0 | 0.00 | 0.00 | 0.00 | 35 | 1019.8 |
| 20260505191943 | 78 | 251 | 3.0 | 3.0 | 0.00 | 0.00 | 0.00 | 36 | 1019.6 |
| 20260505191442 | 78 | 235 | 2.0 | 3.0 | 0.00 | 0.00 | 0.00 | 35 | 1019.7 |
| 20260505190938 | 78 | 76 | 3.0 | 5.0 | 0.00 | 0.00 | 0.00 | 36 | 1019.7 |
| 20260505190433 | 78 | 213 | 5.0 | 7.0 | 0.00 | 0.00 | 0.00 | 36 | 1019.9 |
| 20260505185929 | 78 | 157 | 2.0 | 3.0 | 0.00 | 0.00 | 0.00 | 36 | 1020.1 |
| 20260505185427 | 78 | 228 | 3.0 | 3.0 | 0.00 | 0.00 | 0.00 | 37 | 1020.1 |
| 20260505184922 | 78 | 256 | 2.0 | 3.0 | 0.00 | 0.00 | 0.00 | 38 | 1020.4 |
| 20260505184420 | 78 | 287 | 0.0 | 0.0 | 0.00 | 0.00 | 0.00 | 38 | 1020.2 |
| 20260505183916 | 77 | 245 | 0.0 | 2.0 | 0.00 | 0.00 | 0.00 | 38 | 1020.4 |
| 20260505183413 | 76 | 194 | 2.0 | 3.0 | 0.00 | 0.00 | 0.00 | 40 | 1020.5 |
| 20260505182910 | 77 | 243 | 3.0 | 3.0 | 0.00 | 0.00 | 0.00 | 39 | 1020.5 |
| 20260505182407 | 77 | 202 | 0.0 | 0.0 | 0.00 | 0.00 | 0.00 | 39 | 1020.5 |
| 20260505181903 | 77 | 245 | 0.0 | 0.0 | 0.00 | 0.00 | 0.00 | 40 | 1020.4 |
| 20260505181400 | 77 | 153 | 3.0 | 5.0 | 0.00 | 0.00 | 0.00 | 38 | 1020.8 |
| 20260505180857 | 77 | 197 | 5.0 | 7.0 | 0.00 | 0.00 | 0.00 | 36 | 1021.0 |
| 20260505180353 | 77 | 227 | 0.0 | 0.0 | 0.00 | 0.00 | 0.00 | 38 | 1020.9 |
| 20260505175850 | 77 | 275 | 1.0 | 3.0 | 0.00 | 0.00 | 0.00 | 39 | 1020.8 |
| 20260505175347 | 77 | 195 | 4.0 | 7.0 | 0.00 | 0.00 | 0.00 | 39 | 1021.3 |
| 20260505174843 | 77 | 238 | 2.0 | 3.0 | 0.00 | 0.00 | 0.00 | 40 | 1021.1 |
| 20260505174341 | 76 | 107 | 3.0 | 3.0 | 0.00 | 0.00 | 0.00 | 40 | 1021.2 |
| 20260505173836 | 76 | 173 | 5.0 | 7.0 | 0.00 | 0.00 | 0.00 | 40 | 1021.3 |
| 20260505173333 | 76 | 256 | 3.0 | 3.0 | 0.00 | 0.00 | 0.00 | 40 | 1021.4 |
| 20260505172830 | 77 | 235 | 2.0 | 3.0 | 0.00 | 0.00 | 0.00 | 38 | 1021.2 |
| 20260505172328 | 75 | 272 | 3.0 | 3.0 | 0.00 | 0.00 | 0.00 | 40 | 1021.2 |
| 20260505171827 | 76 | 267 | 4.0 | 5.0 | 0.00 | 0.00 | 0.00 | 41 | 1021.3 |
| 20260505171325 | 75 | 111 | 5.0 | 7.0 | 0.00 | 0.00 | 0.00 | 40 | 1021.5 |
| 20260505170821 | 75 | 171 | 3.0 | 3.0 | 0.00 | 0.00 | 0.00 | 40 | 1021.4 |
| 20260505170318 | 75 | 191 | 2.0 | 7.0 | 0.00 | 0.00 | 0.00 | 42 | 1021.5 |
| 20260505165813 | 75 | 178 | 2.0 | 3.0 | 0.00 | 0.00 | 0.00 | 42 | 1021.6 |
| 20260505165309 | 75 | 188 | 3.0 | 5.0 | 0.00 | 0.00 | 0.00 | 42 | 1021.8 |
| 20260505164805 | 74 | 98 | 3.0 | 5.0 | 0.00 | 0.00 | 0.00 | 42 | 1021.4 |
| 20260505164302 | 75 | 224 | 3.0 | 5.0 | 0.00 | 0.00 | 0.00 | 43 | 1021.6 |
| 20260505163800 | 75 | 241 | 4.0 | 5.0 | 0.00 | 0.00 | 0.00 | 43 | 1021.5 |
| 20260505163259 | 75 | 189 | 2.0 | 3.0 | 0.00 | 0.00 | 0.00 | 45 | 1021.5 |
| 20260505162756 | 75 | 211 | 3.0 | 3.0 | 0.00 | 0.00 | 0.00 | 45 | 1021.5 |
| 20260505162253 | 74 | 248 | 0.0 | 2.0 | 0.00 | 0.00 | 0.00 | 44 | 1021.5 |
| 20260505161750 | 73 | 227 | 3.0 | 3.0 | 0.00 | 0.00 | 0.00 | 47 | 1021.5 |
| 20260505161247 | 74 | 220 | 4.0 | 7.0 | 0.00 | 0.00 | 0.00 | 47 | 1021.6 |
| 20260505160744 | 73 | 251 | 1.0 | 2.0 | 0.00 | 0.00 | 0.00 | 48 | 1021.8 |
| 20260505160242 | 73 | 259 | 2.0 | 3.0 | 0.00 | 0.00 | 0.00 | 48 | 1021.5 |
| 20260505153221 | 72 | 211 | 2.0 | 2.0 | 0.00 | 0.00 | 0.00 | 49 | 1022.2 |
| 20260505152718 | 72 | 221 | 0.0 | 0.0 | 0.00 | 0.00 | 0.00 | 54 | 1022.1 |
| 20260505152214 | 71 | 248 | 3.0 | 3.0 | 0.00 | 0.00 | 0.00 | 56 | 1022.3 |
| 20260505151709 | 71 | 110 | 0.0 | 0.0 | 0.00 | 0.00 | 0.00 | 59 | 1021.8 |
| 20260505151207 | 71 | 175 | 3.0 | 3.0 | 0.00 | 0.00 | 0.00 | 60 | 1021.8 |
| 20260505150703 | 70 | 259 | 3.0 | 3.0 | 0.00 | 0.00 | 0.00 | 60 | 1022.1 |
| 20260505150200 | 70 | 240 | 0.0 | 0.0 | 0.00 | 0.00 | 0.00 | 60 | 1021.9 |
| 20260505140633 | 66 | 259 | 0.0 | 0.0 | 0.00 | 0.00 | 0.00 | 65 | 1021.4 |
| 20260505140130 | 66 | 108 | 0.0 | 0.0 | 0.00 | 0.00 | 0.00 | 63 | 1021.3 |
| 20260505124544 | 57 | 293 | 0.0 | 0.0 | 0.00 | 0.00 | 0.00 | 79 | 1020.8 |
| 20260505124040 | 57 | 293 | 0.0 | 0.0 | 0.00 | 0.00 | 0.00 | 80 | 1020.6 |
| 20260505123536 | 56 | 293 | 0.0 | 0.0 | 0.00 | 0.00 | 0.00 | 80 | 1020.5 |
| 20260505123033 | 56 | 293 | 0.0 | 0.0 | 0.00 | 0.00 | 0.00 | 80 | 1020.5 |
| 20260505122530 | 55 | 293 | 0.0 | 0.0 | 0.00 | 0.00 | 0.00 | 79 | 1020.6 |
| 20260505122027 | 55 | 293 | 0.0 | 0.0 | 0.00 | 0.00 | 0.00 | 79 | 1020.7 |
| 20260505121523 | 55 | 293 | 0.0 | 0.0 | 0.00 | 0.00 | 0.00 | 79 | 1020.6 |
| 20260505121020 | 55 | 293 | 0.0 | 0.0 | 0.00 | 0.00 | 0.00 | 79 | 1020.6 |
| 20260505120516 | 55 | 292 | 0.0 | 0.0 | 0.00 | 0.00 | 0.00 | 79 | 1020.7 |
| 20260505120011 | 55 | 292 | 0.0 | 0.0 | 0.00 | 0.00 | 0.00 | 79 | 1020.4 |
| 20260505115507 | 55 | 292 | 0.0 | 0.0 | 0.00 | 0.00 | 0.00 | 79 | 1020.4 |
| 20260505115005 | 54 | 292 | 0.0 | 0.0 | 0.00 | 0.00 | 0.00 | 79 | 1020.2 |
| 20260505114501 | 54 | 292 | 0.0 | 0.0 | 0.00 | 0.00 | 0.00 | 79 | 1020.1 |
| 20260505113958 | 54 | 292 | 0.0 | 0.0 | 0.00 | 0.00 | 0.00 | 79 | 1020.0 |
| 20260505113454 | 54 | 292 | 0.0 | 0.0 | 0.00 | 0.00 | 0.00 | 79 | 1020.2 |
| 20260505112950 | 54 | 292 | 0.0 | 0.0 | 0.00 | 0.00 | 0.00 | 79 | 1020.2 |
| 20260505112447 | 54 | 292 | 0.0 | 0.0 | 0.00 | 0.00 | 0.00 | 79 | 1020.0 |
| 20260505111944 | 54 | 292 | 0.0 | 0.0 | 0.00 | 0.00 | 0.00 | 79 | 1020.1 |
| 20260505111438 | 54 | 292 | 0.0 | 0.0 | 0.00 | 0.00 | 0.00 | 79 | 1020.1 |
| 20260505110935 | 54 | 270 | 0.0 | 0.0 | 0.00 | 0.00 | 0.00 | 78 | 1020.1 |
| 20260505110432 | 54 | 270 | 0.0 | 0.0 | 0.00 | 0.00 | 0.00 | 78 | 1019.9 |
| 20260505101903 | 55 | 270 | 0.0 | 0.0 | 0.00 | 0.00 | 0.00 | 75 | 1020.1 |
| 20260505101357 | 55 | 270 | 0.0 | 0.0 | 0.00 | 0.00 | 0.00 | 73 | 1020.2 |
| 20260505100854 | 55 | 270 | 0.0 | 0.0 | 0.00 | 0.00 | 0.00 | 72 | 1020.2 |
| 20260505100350 | 55 | 270 | 0.0 | 0.0 | 0.00 | 0.00 | 0.00 | 72 | 1020.0 |
| 20260505095846 | 56 | 269 | 0.0 | 0.0 | 0.00 | 0.00 | 0.00 | 71 | 1020.3 |
| 20260505095344 | 56 | 268 | 0.0 | 0.0 | 0.00 | 0.00 | 0.00 | 71 | 1020.2 |
| 20260505094839 | 56 | 270 | 0.0 | 0.0 | 0.00 | 0.00 | 0.00 | 71 | 1020.4 |
| 20260505094337 | 56 | 270 | 0.0 | 0.0 | 0.00 | 0.00 | 0.00 | 70 | 1020.2 |
| 20260505093832 | 56 | 270 | 0.0 | 0.0 | 0.00 | 0.00 | 0.00 | 70 | 1019.9 |
| 20260505093330 | 56 | 270 | 0.0 | 0.0 | 0.00 | 0.00 | 0.00 | 69 | 1020.1 |
| 20260505092826 | 56 | 270 | 0.0 | 0.0 | 0.00 | 0.00 | 0.00 | 69 | 1020.4 |
| 20260505092325 | 56 | 270 | 0.0 | 0.0 | 0.00 | 0.00 | 0.00 | 69 | 1020.2 |
| 20260505091822 | 56 | 270 | 0.0 | 0.0 | 0.00 | 0.00 | 0.00 | 69 | 1020.4 |
| 20260505091320 | 56 | 266 | 0.0 | 0.0 | 0.00 | 0.00 | 0.00 | 69 | 1020.5 |
| 20260505090817 | 56 | 244 | 0.0 | 0.0 | 0.00 | 0.00 | 0.00 | 69 | 1020.6 |
| 20260505090316 | 56 | 243 | 0.0 | 0.0 | 0.00 | 0.00 | 0.00 | 69 | 1020.5 |
| 20260505085812 | 57 | 243 | 0.0 | 0.0 | 0.00 | 0.00 | 0.00 | 68 | 1020.5 |
| 20260505085310 | 57 | 274 | 0.0 | 0.0 | 0.00 | 0.00 | 0.00 | 68 | 1020.7 |
| 20260505084808 | 57 | 263 | 0.0 | 0.0 | 0.00 | 0.00 | 0.00 | 68 | 1020.4 |
| 20260505084306 | 57 | 261 | 0.0 | 0.0 | 0.00 | 0.00 | 0.00 | 67 | 1020.5 |
| 20260505083803 | 57 | 243 | 0.0 | 0.0 | 0.00 | 0.00 | 0.00 | 67 | 1020.5 |
| 20260505083300 | 57 | 243 | 0.0 | 0.0 | 0.00 | 0.00 | 0.00 | 66 | 1020.6 |
| 20260505082756 | 57 | 233 | 0.0 | 0.0 | 0.00 | 0.00 | 0.00 | 66 | 1020.5 |
| 20260505082253 | 58 | 233 | 0.0 | 0.0 | 0.00 | 0.00 | 0.00 | 65 | 1020.5 |
| 20260505081749 | 58 | 233 | 0.0 | 0.0 | 0.00 | 0.00 | 0.00 | 64 | 1020.3 |
| 20260505081246 | 58 | 232 | 0.0 | 0.0 | 0.00 | 0.00 | 0.00 | 64 | 1020.3 |
| 20260505080743 | 58 | 243 | 0.0 | 0.0 | 0.00 | 0.00 | 0.00 | 63 | 1020.3 |
| 20260505080239 | 58 | 243 | 0.0 | 0.0 | 0.00 | 0.00 | 0.00 | 63 | 1020.5 |
| 20260505075735 | 59 | 243 | 0.0 | 0.0 | 0.00 | 0.00 | 0.00 | 62 | 1020.3 |
| 20260505075232 | 59 | 242 | 0.0 | 0.0 | 0.00 | 0.00 | 0.00 | 61 | 1020.2 |
| 20260505074729 | 59 | 242 | 0.0 | 0.0 | 0.00 | 0.00 | 0.00 | 61 | 1020.2 |
| 20260505074226 | 59 | 241 | 0.0 | 0.0 | 0.00 | 0.00 | 0.00 | 60 | 1020.3 |
| 20260505073724 | 59 | 240 | 0.0 | 0.0 | 0.00 | 0.00 | 0.00 | 60 | 1020.2 |
| 20260505073222 | 59 | 208 | 0.0 | 0.0 | 0.00 | 0.00 | 0.00 | 60 | 1020.2 |
| 20260505072718 | 59 | 238 | 0.0 | 0.0 | 0.00 | 0.00 | 0.00 | 59 | 1020.4 |
| 20260505072214 | 59 | 257 | 0.0 | 0.0 | 0.00 | 0.00 | 0.00 | 59 | 1020.3 |
| 20260505071709 | 59 | 258 | 0.0 | 0.0 | 0.00 | 0.00 | 0.00 | 60 | 1020.3 |
| 20260505071207 | 59 | 269 | 0.0 | 0.0 | 0.00 | 0.00 | 0.00 | 60 | 1020.2 |
| 20260505070705 | 59 | 269 | 0.0 | 0.0 | 0.00 | 0.00 | 0.00 | 61 | 1020.3 |
| 20260505070200 | 59 | 269 | 0.0 | 0.0 | 0.00 | 0.00 | 0.00 | 60 | 1020.3 |
| 20260505065656 | 59 | 269 | 0.0 | 0.0 | 0.00 | 0.00 | 0.00 | 61 | 1020.0 |
| 20260505065154 | 59 | 269 | 0.0 | 0.0 | 0.00 | 0.00 | 0.00 | 60 | 1020.1 |
| 20260505064650 | 59 | 265 | 0.0 | 0.0 | 0.00 | 0.00 | 0.00 | 60 | 1020.1 |
| 20260505064149 | 59 | 286 | 0.0 | 0.0 | 0.00 | 0.00 | 0.00 | 61 | 1020.0 |
| 20260505063646 | 59 | 286 | 0.0 | 0.0 | 0.00 | 0.00 | 0.00 | 62 | 1020.2 |
| 20260505063142 | 59 | 286 | 0.0 | 0.0 | 0.00 | 0.00 | 0.00 | 62 | 1020.3 |
| 20260505062638 | 59 | 279 | 0.0 | 0.0 | 0.00 | 0.00 | 0.00 | 62 | 1020.3 |
| 20260505062136 | 59 | 279 | 0.0 | 0.0 | 0.00 | 0.00 | 0.00 | 61 | 1020.1 |
| 20260505061633 | 59 | 279 | 0.0 | 0.0 | 0.00 | 0.00 | 0.00 | 62 | 1020.3 |
| 20260505061131 | 59 | 270 | 0.0 | 0.0 | 0.00 | 0.00 | 0.00 | 62 | 1020.1 |
| 20260505060628 | 59 | 270 | 0.0 | 0.0 | 0.00 | 0.00 | 0.00 | 61 | 1020.5 |
| 20260505060125 | 59 | 270 | 0.0 | 0.0 | 0.00 | 0.00 | 0.00 | 61 | 1020.3 |
| 20260505055620 | 59 | 270 | 0.0 | 0.0 | 0.00 | 0.00 | 0.00 | 61 | 1020.5 |
| 20260505055117 | 60 | 270 | 0.0 | 0.0 | 0.00 | 0.00 | 0.00 | 61 | 1020.5 |
| 20260505054614 | 60 | 263 | 0.0 | 0.0 | 0.00 | 0.00 | 0.00 | 61 | 1020.5 |
| 20260505054112 | 60 | 270 | 0.0 | 0.0 | 0.00 | 0.00 | 0.00 | 61 | 1020.5 |